Weather in Belovodovka

Russia / Tomsk District     56°35′36″N   87°03′27″E
temp.,
°C
wind,
m/s
gust,
m/s
humid.,
%
clouds,
%
prec.,
mm/h
press.,
hPa
HPBL,
m
5 march, fri
fri501:00−4ssw81687100 0.0 1015708
04:00−5ssw71683100 0.0 1014558
07:00−7ssw71581100 0.0 1013504
10:00−5ssw61676100 0.0 1012732
13:00−2ssw81576100 0.0 10101220
16:00−3ssw9159299 0.1 10081344
19:00−4sw8168798 0.4 1011981
22:00−6sw8178499 0.1 1013994
6 march, sat
sat601:00−5sw71492100 0.3 10141047
04:00−5sw71488100 0.4 10131045
07:00−5sw7149399 0.7 1014883
10:00−5sw81591100 0.6 1013982
13:00−4sw91592100 1.3 10111158
16:00−3sw91783100 0.1 10091385
19:00−5sw81591100 0.4 10091069
22:00−5sw81590100 0.6 10081027
7 march, sun
sun701:00−4sw91688100 0.6 1008917
04:00−4sw71492100 0.1 1007756
07:00−4w61095100 1.6 1009656
10:00−7wsw7147967 0.4 1011899
13:00−6wsw7127633 0.4 10151086
16:00−6wsw7118060 0.1 10171335
19:00−8wsw5128980 0.2 1019556
22:00−11sw4109066 0.0 1022257
8 march, mon
mon801:00−14sw369356 0.0 1023104
04:00−14s338877 0.0 102248
07:00−12se488588 0.0 1020183
10:00−7sse61288100 0.0 1015529
13:000ssw71381100 0.0 1010866
16:00+1ssw71581100 0.0 1006972
19:000ssw71679100 0.0 1003913
22:00−2sw101891100 0.3 10031268
9 march, tue
tue901:00−4w101583100 0.5 10081004
04:00−11wsw7148893 0.0 1014591
07:00−12wsw7148997 0.0 1018565
10:00−11wsw71388100 0.0 1020665
13:00−9wsw7128396 0.0 1022753
16:00−7sw7118042 0.0 1022835
19:00−9sw5128732 0.0 1022344
22:00−11ssw489156 0.0 1021171